AirNav   Everest Fuels
 
 787 users online  

KPYP Centre-Piedmont-Cherokee County Regional Airport
Centre, Alabama, USA

GOING TO CENTRE?


FAA INFORMATION EFFECTIVE 26 MARCH 2020

Location

FAA Identifier: PYP
Lat/Long: 34-05-23.7000N 085-36-36.3000W
34-05.395000N 085-36.605000W
34.0899167,-85.6100833
(estimated)
Elevation: 594.6 ft. / 181 m (estimated)
Variation: 04W (2010)
From city: 5 miles S of CENTRE, AL
Time zone: UTC -5 (UTC -6 during Standard Time)
Zip code: 35960

Airport Operations

Airport use: Open to the public
Activation date: 09/2007
Control tower: no
ARTCC: ATLANTA CENTER
FSS: ANNISTON FLIGHT SERVICE STATION
NOTAMs facility: ANB (NOTAM-D service available)
Attendance: UNATNDD
Wind indicator: lighted
Segmented circle: yes
Lights: ACTVT MIRL RY 07/25 - CTAF.
Beacon: white-green (lighted land airport)
Operates sunset to sunrise.

Airport Communications

CTAF: 122.9
  • APCH/DEP SVC PRVDD BY ATLANTA ARTCC ON FREQS 124.5/270.325 (GADSDEN RCAG).

Nearby radio navigation aids

VOR radial/distance  VOR name  Freq  Var
GADr072/24.5GADSDEN VOR/DME112.3002E
RMGr259/24.8ROME VORTAC115.4001E
TDGr033/37.7TALLADEGA VOR/DME108.8002E

 
NDB name  Hdg/Dist  Freq  Var  ID
FORT PAYNE177/26.142604WFTP ..-. - .--.
CARTERSVILLE264/38.730804WEVZ . ...- --..
CARROLLTON327/39.527804WGPQ --. .--. --.-

Airport Services

Fuel available: 100LL
Parking: tiedowns

Runway Information

Runway 7/25

Dimensions: 5500 x 100 ft. / 1676 x 30 m
Surface: asphalt/aggregate friction seal coat, in good condition
Runway edge lights: medium intensity
RUNWAY 7  RUNWAY 25
Latitude: 34-05.189240N34-05.601052N
Longitude: 085-37.089855W085-36.118890W
Elevation: 584.4 ft.594.6 ft.
Traffic pattern: leftleft
Runway heading: 067 magnetic, 063 true247 magnetic, 243 true
Markings: nonprecision, in good conditionnonprecision, in good condition
Touchdown point: yes, no lightsyes, no lights
Obstructions: 65 ft. trees, 2929 ft. from runway, 261 ft. left of centerline, 41:1 slope to clearnone

Airport Ownership and Management from official FAA records

Ownership: Publicly-owned
Owner: CPCCR AIRPORT AUTHORITY
P.O. BOX 466
CENTRE, AL 35960
Phone (256) 927-8008
Manager: DONNIE FREE
P.O. 466
CENTRE, AL 35960
Phone (256) 557-0404

Airport Operational Statistics

Aircraft based on the field: 18
Single engine airplanes: 17
Multi engine airplanes: 1
    
Aircraft operations: avg 44/day *
51% transient general aviation
49% local general aviation
* for 12-month period ending 31 March 2019

Additional Remarks

FOR CD CTC ATLANTA ARTCC AT 770-210-7692.

Instrument Procedures

NOTE: All procedures below are presented as PDF files. If you need a reader for these files, you should download the free Adobe Reader.

NOT FOR NAVIGATION. Please procure official charts for flight.
FAA instrument procedures published for use from 26 March 2020 at 0901Z to 23 April 2020 at 0900Z.

 
IAPs - Instrument Approach Procedures
RNAV (GPS) RWY 07   download (215KB)
RNAV (GPS) RWY 25   download (192KB)
NOTE: Special Take-Off Minimums/Departure Procedures apply   download (189KB)

Other nearby airports with instrument procedures:

4A4 - Polk County Airport - Cornelius Moore Field (23 nm E)
4A9 - Isbell Field Airport (24 nm N)
KGAD - Northeast Alabama Regional Airport (25 nm W)
KRMG - Richard B. Russell Regional Airport - J.H. Towers Field (27 nm NE)
KANB - Anniston Regional Airport (33 nm S)
 
Loc | Ops | Rwys | IFR | FBO | Links
Com | Nav | Svcs | Stats | Notes
Area around KPYP (Centre-Piedmont-Cherokee County Regional Airport)
 
Road maps at: MapQuest Bing Google
 
Aerial photo
WARNING: Photo may not be current or correct
Aerial photo of KPYP (Centre-Piedmont-Cherokee County Regional Airport)
Photo by Harley McGatha
Photo taken 10-Nov-2007
from a PA24-260B Comanche

Do you have a better or more recent aerial photo of Centre-Piedmont-Cherokee County Regional Airport that you would like to share? If so, please send us your photo.

 
Sectional chart

 
Airport distance calculator
Flying to Centre-Piedmont-Cherokee County Regional Airport? Find the distance to fly.

From to KPYP

Sunrise and sunset
Times for 08-Apr-2020
 Local
(UTC-5)
 Zulu
(UTC)
Morning civil twilight05:5510:55
Sunrise06:2011:20
Sunset19:0800:08
Evening civil twilight19:3400:34

Current date and time
Zulu (UTC)  09-Apr-2020 00:22:11
Local (UTC-5)  08-Apr-2020 19:22:11
 
METAR
K4A9 
24nm N 
082355Z AUTO 19005KT 10SM CLR 23/19 A2975 RMK AO2 LTG DSNT NW T02320194 10259 20232 402590154
KGAD 
24nm W 
082356Z AUTO 22003KT 10SM FEW040 23/21 A2978 RMK AO2 SLP085 T02330206 10256 20233 56014
KRMG 
27nm NE 
082353Z AUTO 22005KT 10SM CLR 24/19 A2975 RMK AO2 SLP067 T02440189 10278 20244 58010
KANB 
33nm S 
082353Z AUTO 25003KT 10SM SCT025 22/19 A2980 RMK AO2 SLP085 T02220194 10261 20222 50002
K8A0 
33nm W 
082355Z AUTO 22005KT 7SM CLR 22/19 A2978 RMK AO2 PWINO
KPUJ 
35nm E 
082355Z AUTO 00000KT 7SM SCT027 22/18 A2981 RMK AO2
KCTJ 
36nm SE 
082355Z AUTO 00000KT 10SM SCT110 22/19 A2983 RMK AO2 T02190190
KVPC 
38nm E 
082353Z AUTO 00000KT 10SM CLR 23/19 A2978 RMK AO2 SLP072 T02330189 10272 20233 58010
K9A5 
39nm NE 
082355Z AUTO 20006KT 7SM SCT039 SCT045 SCT060 24/18 A2976 RMK AO2 T02360176 10270 20236
KCZL 
40nm NE 
082355Z AUTO 23007KT 10SM CLR 23/19 A2978 RMK AO2
TAF
KANB 
33nm S 
082141Z 0822/0918 24006KT P6SM VCSH BKN050 FM090000 23004KT P6SM SCT035 BKN080 FM090600 25006KT P6SM BKN050 PROB30 0910/0912 3SM -TSRA BKN035CB FM091200 33010G18KT P6SM BKN025 FM091600 33010KT P6SM FEW150
KASN 
38nm SW 
081720Z 0818/0918 25006KT P6SM VCSH BKN025 FM082000 24006KT P6SM VCSH BKN035 TEMPO 0820/0823 4SM TSRA BR OVC025CB FM090000 24004KT P6SM SCT035 BKN080 FM090600 24006KT P6SM BKN030 PROB30 0906/0909 4SM TSRA BR OVC015CB FM091500 34010G18KT P6SM BKN020 FM091600 34011KT P6SM SCT120 AMD NOT SKED
NOTAMs
Click for the latest NOTAMs
NOTAMs are issued by the DoD/FAA and will open in a separate window not controlled by AirNav.

 

 
 

FBO, Fuel Providers, and Aircraft Ground Support

  
 Business Name 
 
 Contact 
 
 Services / Description 
 
Fuel Prices
 
Comments
  
Centre-Piedmont-Cherokee County Regional Airport 256-927-8009
[email]
Airport management, Aviation fuel, Aircraft parking (ramp or tiedown), Hangar leasing / sales, Passenger terminal and lounge, Aircraft maintenance, ...

More info about Centre-Piedmont-Cherokee County Regional Airport
Phillips 66
100LL
SS $4.20 
 Updated 08-Apr-2020
 
   1 read write
SS=Self service
Update Fuel Prices
 

Would you like to see your business listed on this page?

 If your business provides an interesting product or service to pilots, flight crews, aircraft, or users of the Centre-Piedmont-Cherokee County Regional Airport, you should consider listing it here.  To start the listing process, click on the button below
 
Add a business
 

Other Pages about Centre-Piedmont-Cherokee County Regional Airport

Update a link
 
Copyright © AirNav, LLC. All rights reserved. Privacy Policy  Contact